sat.trackr.live / text

‹ back to catalog

STARLINK-2171

NORAD 47754 · 2021-017AJ

PAYLOAD ACTIVE UNKNOWN

§ Identity

Operator
Country
US
Launch date
2021-03-04
Launch site
AFETR
Launch vehicle
Mass (kg)
RCS (m²)

Purposes: comms

External: N2YO · Heavens-Above · Gunter

§ Orbital elements

Epoch: 2026-05-25T06:00:02.000160Z

Period
90.05 min
Inclination
53.0329°
Eccentricity
0.0010060
Mean motion
15.99125186 rev/d
Perigee alt
270.1 km
Apogee alt
283.5 km
Semi-major
6,655.0 km
B*
7.6065e-4
RAAN
142.9115°
Arg perigee
40.3596°
Mean anomaly
72.6213°
Rev number
597

§ Raw data

STARLINK-21711 47754U 21017AJ  26145.25002315  .00379227  71470-4  76065-3 0  99942 47754  53.0329 142.9115 0010060  40.3596  72.6213 15.99125186  5977

JSON: /api/v1/satellites/47754 · /tle

For live sub-satellite position, see the globe view (requires WebGL).

§ Visibility from observer

Set your observer location to see the next 7 days of passes ≥ 10°. The values pass through the URL so the page stays shareable.

No JS? Fill the form by hand. The geolocation button needs JavaScript.